Location: Azul
(36.7830°S, 59.8500°W)
Time: 12:29:40
(UTC-03:00)

BEESAT 3 - Pass Details

Date: 28 October 2021
Orbit: 477 x 511 km, 64.9° (Epoch: 28 November)

Event Time Altitude Azimuth Distance (km) Brightness Sun altitude
Rises 03:36:03 0° 208° (SSW) 2,572 ? -25.6°
Reaches altitude 10° 03:38:14 10° 205° (SSW) 1,682 ? -25.2°
Enters shadow 03:39:27 20° 202° (SSW) 1,199 ? -25.1°
